星链-33970 (STARLINK-33970)

导读 | 豆包AI

STARLINK-33970是美国于2025年5月23日发射的星链卫星,隶属于SpaceX公司打造的星链星座项目。该项目旨在构建覆盖全球的卫星互联网星座,为全球用户提供高速低延迟的宽带网络服务。此卫星加入星座后,进一步扩充了星链系统的在轨规模,助力提升全球范围尤其是偏远地区的网络覆盖能力。

基本信息
目录编号:
64106
目录名称:
STARLINK-33970
国际标识:
2025-110L
轨道中心:
EARTH
卫星名称:
星链-33970
卫星全名:
星链-33970 (STARLINK-33970)
卫星状态:
在轨 (已飞行341 天)
发射日期:
2025-05-23 UTC
国别 :
美国 (US)
星等 :
--
轨道信息
数据来源 国际轨道数据 AOE轨道数据
星历时间 2026-04-29T14:15:17+0800
12小时前
查看轨道信息
2026-04-23T05:00:00+0800
6天前
查看轨道信息
半长轴 6853.335km 6853.403km
偏心率 0.0001712 0.0001222
轨道倾角 53.158° 53.157°
近地点辐角 80.949° 86.742°
升交点赤经 151.970° 181.630°
平近点角 279.171° 357.301°
近地点 474.024km 474.428km
远地点 476.372km 476.104km
周期 94.105分钟 94.106分钟
每日圈数 15.302058 15.30183
详细信息
固有亮度:
5
最大亮度:
2.5
卫星平台:
Starlink V1.0
覆盖范围:
全球
运营商:
太空探索技术公司
运营商所在国:
美国
制造商(研发单位):
太空探索技术公司
制造商所在国:
美国
使用方式:
暂无
卫星简介
Starlink 计划是 SpaceX 推出的全球卫星互联网项目,通过发射低轨道卫星,为全球尤其是偏远地区提供高速、低延迟的互联网服务。自 2019 年起,Starlink 已部署数千颗卫星,旨在缩小全球数字鸿沟,推动互联网普及。该项目还为军事、航空等行业提供通信支持,带来广泛经济效益。
2D轨道图
3D轨道图
轨道高度分析图
轨道倾角分析图
轨道综合分析图
查看轨道综合分析图